Location: Anaheim
(33.8350°N, 117.9140°W)
Time: 02:25:11
(UTC-07:00)

Amateur Radio Satellites - All Passes

Search period start: 27 June 2016 01:55
Search period end: 28 June 2016 01:55
Location: Anaheim, 33.8350°N, 117.9140°W

Satellite Date Start Highest point End Downlink Frequencies (MHz)
Time Altitude Azimuth
YUBILEINY 27 Jun 01:55:37 02:02:56 31° 275° (W) 02:10:16 435.215
O/OREOS (USA 219) 27 Jun 01:58:35 02:00:45 13° 99° (E) 02:02:54 437.305
SWISSCUBE 27 Jun 02:08:03 02:12:43 56° 74° (ENE) 02:17:26 437.505
Cosmos 2504 27 Jun 02:15:41 02:24:30 71° 267° (W) 02:32:54 435.465 / 435.565
ITUPSAT 1 27 Jun 02:33:16 02:38:02 88° 242° (WSW) 02:42:53 437.325
BEESAT 27 Jun 02:33:27 02:38:13 85° 258° (WSW) 02:43:02 436.000
TISAT 1 27 Jun 02:36:33 02:37:52 11° 267° (W) 02:39:11 437.305
JAS-2 27 Jun 02:38:24 02:42:53 25° 294° (WNW) 02:47:06 435.910
PCSat 27 Jun 02:50:30 02:55:52 65° 298° (WNW) 03:01:16 145.827
BEESAT 3 27 Jun 02:51:00 02:54:54 76° 117° (ESE) 02:58:50 437.485
Cosmos 2491 27 Jun 03:02:03 03:07:51 19° 291° (WNW) 03:13:42 435.465 / 435.565
Oscar 19 27 Jun 03:12:33 03:16:53 29° 291° (WNW) 03:21:13 437.125/150
Gurwin Techsat 1B 27 Jun 03:14:40 03:19:58 68° 285° (WNW) 03:25:14 435.225
BEESAT 2 27 Jun 03:25:19 03:29:15 80° 297° (WNW) 03:33:14 435.950
MOZHAYETS 4 27 Jun 03:28:40 03:32:49 34° 72° (ENE) 03:37:00
ITAMSAT 1 27 Jun 03:30:32 03:35:41 58° 101° (E) 03:40:49 435.822/435.867
O/OREOS (USA 219) 27 Jun 03:35:25 03:39:41 43° 292° (WNW) 03:44:00 437.305
AIST 1 27 Jun 03:35:26 03:36:26 11° 73° (ENE) 03:37:26
AO-7 27 Jun 03:43:51 03:51:12 33° 99° (E) 03:58:29 29.400- 29.500
SWISSCUBE 27 Jun 03:48:58 03:50:48 12° 268° (W) 03:52:38 437.505
KKS-1 27 Jun 03:50:41 03:55:05 73° 76° (ENE) 03:59:30 437.445
STARS 27 Jun 04:27:32 04:31:54 86° 259° (W) 04:36:17 437.465
CUBESAT XI-V 27 Jun 04:51:44 04:55:49 30° 71° (ENE) 04:59:55 437.345
Cosmos 2499 27 Jun 05:05:44 05:11:33 19° 68° (ENE) 05:17:10 435.465 / 435.565
MOZHAYETS 4 27 Jun 05:06:50 05:10:02 18° 266° (W) 05:13:15
AIST 1 27 Jun 05:10:11 05:14:16 46° 267° (W) 05:18:20
HORYU 2 27 Jun 05:11:15 05:15:19 33° 98° (E) 05:19:22 437.375
ITAMSAT 1 27 Jun 05:11:45 05:14:36 15° 296° (WNW) 05:17:28 435.822/435.867
AIST 2 27 Jun 05:31:02 05:35:07 68° 300° (WNW) 05:39:14 435.215
AO-7 27 Jun 05:36:07 05:44:02 48° 294° (WNW) 05:51:54 29.400- 29.500
GONETS M04 27 Jun 05:55:16 06:03:56 65° 81° (E) 06:12:36
CUTE-I 27 Jun 06:00:26 06:03:29 15° 93° (E) 06:06:31 437.470
BRITE-PL 27 Jun 06:28:59 06:32:51 37° 99° (E) 06:36:46 437.365/2234.400
CUBESAT XI-V 27 Jun 06:29:33 06:33:10 22° 265° (W) 06:36:47 437.345
NOAA 15 27 Jun 06:32:22 06:37:25 46° 100° (E) 06:42:25 137.62
NOAA 18 27 Jun 06:45:06 06:50:28 48° 100° (E) 06:55:48 137.9125
HORYU 2 27 Jun 06:48:28 06:51:35 19° 292° (WNW) 06:54:43 437.375
Cosmos 2499 27 Jun 06:56:51 07:05:37 77° 266° (W) 07:13:47 435.465 / 435.565
Cubesat XI-IV 27 Jun 07:03:33 07:08:56 68° 102° (ESE) 07:14:16 437.490
CUSAT 1 27 Jun 07:03:45 07:10:58 39° 92° (E) 07:17:28 437.405
AO-85 27 Jun 07:05:58 07:10:18 52° 58° (ENE) 07:14:15 145.980
STRAND 1 27 Jun 07:10:16 07:15:19 63° 74° (ENE) 07:20:25 437.568
GOMX 1 27 Jun 07:10:27 07:14:34 50° 100° (E) 07:18:50 467.674
PHONESAT 2.4 27 Jun 07:10:43 07:13:44 69° 154° (SSE) 07:16:48 2401.200-2431.200
DANDE 27 Jun 07:12:27 07:18:42 24° 86° (E) 07:24:51 436.750
LilacSat-2 27 Jun 07:13:07 07:17:01 78° 281° (W) 07:20:53 437.200
CUTE-I 27 Jun 07:38:33 07:43:48 55° 287° (WNW) 07:49:01 437.470
CINEMA 3 27 Jun 07:49:08 07:52:08 17° 95° (E) 07:55:12 145.822/145.860
GONETS M04 27 Jun 07:53:42 07:59:54 22° 278° (W) 08:06:09
CUTE 1.7 + AOD 2 27 Jun 07:54:04 07:56:28 15° 93° (E) 07:58:51 437.475
ISS 27 Jun 07:56:54 07:59:07 17° 128° (SE) 08:01:22 145.825
SEEDS 27 Jun 08:01:31 08:03:12 12° 92° (E) 08:04:52 437.485
BRITE-PL 27 Jun 08:09:03 08:11:01 13° 292° (WNW) 08:13:00 437.365/2234.400
NOAA 15 27 Jun 08:13:16 08:16:47 18° 294° (WNW) 08:20:16 137.62
DOVE 4 27 Jun 08:18:24 08:22:40 58° 284° (WNW) 08:27:09 437.250
NOAA 18 27 Jun 08:26:49 08:30:42 20° 295° (WNW) 08:34:34 137.9125
HO-68 27 Jun 08:35:02 08:42:03 53° 101° (ESE) 08:49:01 435.675
PRISM 27 Jun 08:35:28 08:39:37 75° 77° (ENE) 08:43:46 437.425
AAUSAT CUBESAT 2 27 Jun 08:43:38 08:46:51 21° 95° (E) 08:50:02 437.432
CUSAT 1 27 Jun 08:45:45 08:52:57 37° 283° (WNW) 08:59:23 437.405
Cubesat XI-IV 27 Jun 08:45:51 08:48:21 13° 297° (WNW) 08:50:52 437.490
UWE-3 27 Jun 08:47:43 08:50:21 15° 93° (E) 08:52:58 435.000/436.395/437.385
PHONESAT 2.4 27 Jun 08:47:48 08:50:31 28° 348° (NNW) 08:53:16 2401.200-2431.200
AO-85 27 Jun 08:49:31 08:50:03 10° 255° (WSW) 08:50:34 145.980
GOMX 1 27 Jun 08:51:08 08:52:16 11° 293° (WNW) 08:53:23 467.674
DANDE 27 Jun 08:52:38 09:00:56 68° 280° (W) 09:09:00 436.750
STRAND 1 27 Jun 08:52:52 08:54:50 12° 268° (W) 08:56:48 437.568
Cosmos 2499 27 Jun 08:54:50 08:57:04 11° 284° (WNW) 08:59:16 435.465 / 435.565
CANX-2 27 Jun 09:07:56 09:12:09 56° 285° (WNW) 09:16:18 2200.000
COMPASS 1 27 Jun 09:15:27 09:19:39 72° 101° (ESE) 09:23:47 437.405
M-CUBED/EXP-1 PRIME 27 Jun 09:16:05 09:19:28 26° 103° (ESE) 09:23:03 437.505
CINEMA 3 27 Jun 09:25:05 09:29:19 38° 286° (WNW) 09:33:41 145.822/145.860
CUTE 1.7 + AOD 2 27 Jun 09:28:27 09:32:24 36° 287° (WNW) 09:36:18 437.475
CUBEBUG 2 27 Jun 09:31:50 09:36:27 74° 101° (ESE) 09:41:10 437.445
ISS 27 Jun 09:32:23 09:35:21 32° 322° (NW) 09:38:21 145.825
SEEDS 27 Jun 09:35:03 09:39:04 43° 286° (WNW) 09:43:03 437.485
ANTELSAT 27 Jun 09:38:28 09:41:36 20° 69° (ENE) 09:44:47 437.575/2403.000
HUMSAT D 27 Jun 09:57:13 09:58:29 11° 92° (E) 09:59:46 437.325/437.525
ZACube-1 27 Jun 10:04:37 10:09:11 76° 103° (ESE) 10:13:45 437.345
AUBIESAT-1 27 Jun 10:11:56 10:15:54 74° 287° (WNW) 10:20:08 437.475
Oscar 11 27 Jun 10:17:32 10:21:53 71° 283° (WNW) 10:26:12 145.826/435.025
AAUSAT CUBESAT 2 27 Jun 10:18:54 10:22:14 24° 289° (WNW) 10:25:33 437.432
UWE-3 27 Jun 10:22:33 10:26:55 43° 286° (WNW) 10:31:19 435.000/436.395/437.385
FUNcube-1 27 Jun 10:23:02 10:27:33 71° 284° (WNW) 10:32:07 145.935
HO-68 27 Jun 10:23:36 10:29:18 26° 297° (WNW) 10:35:01 435.675
PHONESAT 2.4 27 Jun 10:25:07 10:27:40 23° 5° (N) 10:30:13 2401.200-2431.200
TIGRISAT 27 Jun 10:29:12 10:33:27 78° 77° (ENE) 10:37:47 435.000
UNISAT 6 27 Jun 10:33:50 10:38:06 85° 259° (WSW) 10:42:28 437.425
DELFI C3 27 Jun 10:41:44 10:45:44 81° 284° (WNW) 10:49:41 145.870
DANDE 27 Jun 10:42:02 10:44:53 12° 295° (WNW) 10:47:43 436.750
M-CUBED/EXP-1 PRIME 27 Jun 10:50:55 10:53:51 20° 293° (WNW) 10:56:55 437.505
JAS-2 27 Jun 11:02:44 11:06:07 14° 61° (ENE) 11:09:21 435.910
NANOSAT C BR1 27 Jun 11:05:04 11:08:39 29° 72° (ENE) 11:12:16 145.865
QB50P1 27 Jun 11:07:06 11:10:49 32° 72° (ENE) 11:14:34 145.935-145.965
POPSAT HIP 1 27 Jun 11:10:07 11:13:54 34° 73° (ENE) 11:17:42 437.405
BEESAT 3 27 Jun 11:13:10 11:15:17 14° 50° (NE) 11:17:24 437.485
ANTELSAT 27 Jun 11:14:27 11:18:06 27° 264° (W) 11:21:50 437.575/2403.000
Cosmos 2491 27 Jun 11:17:27 11:24:55 31° 74° (ENE) 11:32:19 435.465 / 435.565
QB50P2 27 Jun 11:21:44 11:25:48 53° 75° (ENE) 11:29:55 145.880/145.840
RS-15 27 Jun 11:24:00 11:34:41 52° 109° (ESE) 11:45:55 29.354- 29.394
POLYITAN 1 27 Jun 11:24:21 11:28:25 54° 75° (ENE) 11:32:31 437.675
DUCHIFAT 1 27 Jun 11:25:51 11:29:51 48° 74° (ENE) 11:33:52 145.980
HUMSAT D 27 Jun 11:30:09 11:34:20 49° 285° (WNW) 11:38:28 437.325/437.525
DX 1 27 Jun 11:36:09 11:37:16 11° 93° (E) 11:38:23 434.975-435.025
PCSat 27 Jun 11:42:21 11:47:31 43° 60° (ENE) 11:52:39 145.827
50 SAT 27 Jun 11:44:04 11:46:44 19° 96° (E) 11:49:23 437.505
BEESAT 2 27 Jun 11:47:45 11:50:33 18° 52° (NE) 11:53:20 435.950
CUBEBUG 1 27 Jun 11:59:50 12:03:44 32° 98° (E) 12:07:37 437.445
PHONESAT 2.4 27 Jun 12:01:36 12:04:39 57° 22° (NNE) 12:07:41 2401.200-2431.200
VELOX 1 27 Jun 12:04:18 12:08:18 33° 98° (E) 12:12:15 145.980
O/OREOS (USA 219) 27 Jun 12:11:16 12:13:49 15° 60° (ENE) 12:16:22 437.305
BUGSAT 1 27 Jun 12:27:24 12:31:23 65° 259° (W) 12:35:23 437.445
ESTCUBE 1 27 Jun 12:35:09 12:39:34 59° 285° (WNW) 12:43:58 437.505/2401.250
NANOSAT C BR1 27 Jun 12:41:31 12:44:22 18° 265° (W) 12:47:14 145.865
JAS-2 27 Jun 12:42:24 12:50:12 81° 75° (ENE) 12:57:25 435.910
QB50P1 27 Jun 12:44:03 12:46:38 16° 266° (W) 12:49:15 145.935-145.965
AISAT 27 Jun 12:44:40 12:49:03 73° 284° (WNW) 12:53:25 437.250
Oscar 19 27 Jun 12:46:32 12:50:50 28° 69° (ENE) 12:55:09 437.125/150
POPSAT HIP 1 27 Jun 12:47:21 12:49:45 15° 266° (W) 12:52:09 437.405
BEESAT 3 27 Jun 12:49:24 12:53:09 42° 246° (WSW) 12:56:53 437.485
UKube-1 27 Jun 12:51:56 12:56:15 77° 103° (ESE) 13:00:32 .
YUBILEINY 27 Jun 12:53:40 13:02:13 65° 92° (E) 13:10:49 435.215
Gurwin Techsat 1B 27 Jun 12:55:01 12:57:42 14° 64° (ENE) 13:00:22 435.225
SPROUT 27 Jun 12:56:01 13:00:15 58° 101° (E) 13:04:28 437.525
Cosmos 2504 27 Jun 12:58:51 13:03:45 18° 79° (E) 13:08:50 435.465 / 435.565
DUCHIFAT 1 27 Jun 13:05:13 13:05:45 10° 268° (W) 13:06:18 145.980
DX 1 27 Jun 13:09:30 13:13:41 50° 286° (WNW) 13:17:52 434.975-435.025
Cosmos 2491 27 Jun 13:13:41 13:21:54 49° 271° (W) 13:30:09 435.465 / 435.565
50 SAT 27 Jun 13:17:31 13:20:18 20° 289° (WNW) 13:23:03 437.505
BEESAT 2 27 Jun 13:24:52 13:28:26 31° 247° (WSW) 13:31:57 435.950
PCSat 27 Jun 13:26:37 13:30:33 21° 254° (WSW) 13:34:27 145.827
RS-15 27 Jun 13:36:35 13:47:15 44° 310° (NW) 13:58:33 29.354- 29.394
CUBEBUG 1 27 Jun 13:36:54 13:39:44 17° 292° (WNW) 13:42:34 437.445
PHONESAT 2.4 27 Jun 13:38:41 13:41:04 21° 215° (SW) 13:43:29 2401.200-2431.200
VELOX 1 27 Jun 13:41:32 13:44:28 18° 292° (WNW) 13:47:23 145.980
O/OREOS (USA 219) 27 Jun 13:49:10 13:53:24 43° 255° (WSW) 13:57:39 437.305
AIST 2 27 Jun 13:56:26 13:59:48 23° 54° (NE) 14:03:10 435.215
SWISSCUBE 27 Jun 14:13:04 14:16:31 19° 95° (E) 14:19:56 437.505
TISAT 1 27 Jun 14:21:02 14:25:09 56° 285° (WNW) 14:29:16 437.305
Oscar 19 27 Jun 14:25:36 14:30:01 29° 263° (W) 14:34:27 437.125/150
JAS-2 27 Jun 14:30:59 14:35:33 17° 268° (W) 14:39:59 435.910
Gurwin Techsat 1B 27 Jun 14:31:48 14:37:03 63° 259° (W) 14:42:20 435.225
BEESAT 27 Jun 14:37:47 14:42:07 33° 98° (E) 14:46:22 436.000
ITUPSAT 1 27 Jun 14:38:01 14:42:20 32° 98° (E) 14:46:35 437.325
AO-7 27 Jun 14:38:52 14:46:02 33° 62° (ENE) 14:53:13 29.400- 29.500
ITAMSAT 1 27 Jun 14:44:32 14:49:37 59° 74° (ENE) 14:54:46 435.822/435.867
Cosmos 2504 27 Jun 14:48:02 14:55:58 76° 277° (W) 15:04:33 435.465 / 435.565
YUBILEINY 27 Jun 14:53:03 14:59:34 23° 289° (WNW) 15:06:10 435.215
MOZHAYETS 4 27 Jun 15:30:07 15:31:11 11° 91° (E) 15:32:16
AIST 2 27 Jun 15:34:46 15:38:12 25° 248° (WSW) 15:41:37 435.215
SO-50 27 Jun 15:44:40 15:49:26 54° 115° (ESE) 15:54:12 436.795
KKS-1 27 Jun 15:46:25 15:49:33 19° 95° (E) 15:52:41 437.445
SWISSCUBE 27 Jun 15:50:00 15:54:20 35° 289° (WNW) 15:58:40 437.505
JUGNU 27 Jun 15:52:01 15:55:50 17° 171° (S) 15:59:39 437.505
RS-15 27 Jun 15:58:22 16:04:19 15° 341° (NNW) 16:10:24 29.354- 29.394
ISS 27 Jun 16:02:51 16:05:58 40° 40° (NE) 16:09:03 145.825
HORYU 2 27 Jun 16:06:12 16:09:23 20° 68° (ENE) 16:12:34 437.375
BEESAT 27 Jun 16:16:02 16:19:38 21° 292° (WNW) 16:23:13 436.000
ITUPSAT 1 27 Jun 16:16:17 16:19:56 22° 292° (WNW) 16:23:34 437.325
STARS 27 Jun 16:21:24 16:24:52 23° 96° (E) 16:28:21 437.465
ITAMSAT 1 27 Jun 16:27:01 16:29:24 13° 267° (W) 16:31:48 435.822/435.867
AO-7 27 Jun 16:30:29 16:38:26 49° 258° (WSW) 16:46:28 29.400- 29.500
Cosmos 2504 27 Jun 16:48:17 16:50:54 12° 297° (WNW) 16:53:35 435.465 / 435.565
GONETS M04 27 Jun 17:01:06 17:04:16 12° 78° (ENE) 17:07:25
MOZHAYETS 4 27 Jun 17:04:06 17:08:40 58° 285° (WNW) 17:13:11
SRMSAT 27 Jun 17:05:45 17:08:13 13° 165° (SSE) 17:10:41 437.500
CUTE-I 27 Jun 17:18:31 17:22:04 18° 65° (ENE) 17:25:36 437.470
KKS-1 27 Jun 17:22:11 17:26:07 31° 289° (WNW) 17:30:03 437.445
SO-50 27 Jun 17:26:58 17:30:13 17° 311° (NW) 17:33:28 436.795
AIST 1 27 Jun 17:34:55 17:39:13 67° 277° (W) 17:43:31
BRITE-PL 27 Jun 17:35:31 17:40:08 34° 73° (ENE) 17:44:27 437.365/2234.400
Cosmos 2499 27 Jun 17:38:58 17:43:22 15° 78° (ENE) 17:47:51 435.465 / 435.565
JUGNU 27 Jun 17:39:51 17:44:11 21° 181° (S) 17:48:32 437.505
ISS 27 Jun 17:40:22 17:42:07 14° 233° (SW) 17:43:52 145.825
HORYU 2 27 Jun 17:41:48 17:45:41 30° 262° (W) 17:49:37 437.375
NOAA 15 27 Jun 17:48:29 17:53:35 51° 72° (ENE) 17:58:41 137.62
LilacSat-2 27 Jun 17:51:39 17:54:50 27° 72° (ENE) 17:58:03 437.200
STARS 27 Jun 17:57:29 18:01:08 26° 290° (WNW) 18:04:46 437.465
NOAA 18 27 Jun 18:07:31 18:12:53 63° 74° (ENE) 18:18:18 137.9125
GOMX 1 27 Jun 18:14:52 18:19:11 36° 73° (ENE) 18:23:15 467.674
RS-15 27 Jun 18:18:12 18:24:41 15° 21° (NNE) 18:31:10 29.354- 29.394
Cubesat XI-IV 27 Jun 18:21:35 18:26:54 76° 75° (ENE) 18:32:16 437.490
CUBESAT XI-V 27 Jun 18:28:46 18:33:20 64° 285° (WNW) 18:37:52 437.345
GONETS M04 27 Jun 18:50:56 18:59:39 84° 94° (E) 19:08:23
SRMSAT 27 Jun 18:52:33 18:56:42 20° 175° (S) 19:00:50 437.500
CUTE-I 27 Jun 18:56:32 19:01:40 49° 260° (W) 19:06:51 437.470
HO-68 27 Jun 19:00:24 19:06:06 27° 63° (ENE) 19:11:49 435.675
BRITE-PL 27 Jun 19:14:35 19:18:34 22° 264° (W) 19:22:21 437.365/2234.400
DOVE 4 27 Jun 19:20:02 19:24:29 88° 72° (ENE) 19:28:43 437.250
STRAND 1 27 Jun 19:25:11 19:29:38 29° 97° (E) 19:34:03 437.568
LilacSat-2 27 Jun 19:26:54 19:29:08 15° 266° (W) 19:31:23 437.200
Cosmos 2499 27 Jun 19:26:59 19:35:07 86° 276° (W) 19:43:55 435.465 / 435.565
CUSAT 1 27 Jun 19:27:24 19:30:33 34° 268° (W) 19:33:11 437.405
JUGNU 27 Jun 19:28:58 19:32:33 16° 191° (S) 19:36:06 437.505
NOAA 15 27 Jun 19:30:24 19:33:34 16° 266° (W) 19:36:46 137.62
DANDE 27 Jun 19:40:22 19:45:07 80° 79° (E) 19:48:38 436.750
NOAA 18 27 Jun 19:51:20 19:53:54 13° 267° (W) 19:56:30 137.9125
GOMX 1 27 Jun 19:54:14 19:57:17 17° 265° (W) 20:00:14 467.674
CANX-2 27 Jun 19:56:20 20:00:32 60° 76° (ENE) 20:04:47 2200.000
M-CUBED/EXP-1 PRIME 27 Jun 20:01:08 20:02:51 14° 65° (ENE) 20:04:33 437.505
COMPASS 1 27 Jun 20:02:32 20:06:07 28° 72° (ENE) 20:09:45 437.405
Cubesat XI-IV 27 Jun 20:06:46 20:07:27 10° 269° (W) 20:08:07 437.490
CUTE 1.7 + AOD 2 27 Jun 20:16:28 20:20:44 89° 266° (W) 20:25:02 437.475
SEEDS 27 Jun 20:22:13 20:26:26 75° 77° (ENE) 20:30:42 437.485
PRISM 27 Jun 20:22:38 20:24:38 13° 94° (E) 20:26:35 437.425
CINEMA 3 27 Jun 20:22:52 20:26:59 64° 260° (W) 20:31:06 145.822/145.860
CUBEBUG 2 27 Jun 20:26:33 20:30:18 34° 73° (ENE) 20:34:08 437.445
RS-15 27 Jun 20:29:58 20:41:41 46° 51° (NE) 20:53:12 29.354- 29.394
SRMSAT 27 Jun 20:41:04 20:45:13 20° 185° (S) 20:49:20 437.500
HO-68 27 Jun 20:46:29 20:53:23 52° 259° (W) 21:00:20 435.675
GONETS M04 27 Jun 20:52:19 20:57:26 17° 292° (WNW) 21:02:37
AUBIESAT-1 27 Jun 20:55:15 20:58:32 67° 72° (ENE) 21:01:49 437.475
ZACube-1 27 Jun 20:56:53 21:00:38 33° 72° (ENE) 21:04:28 437.345
AAUSAT CUBESAT 2 27 Jun 21:04:07 21:08:14 61° 260° (W) 21:12:25 437.432
STRAND 1 27 Jun 21:04:22 21:08:40 27° 291° (WNW) 21:12:57 437.568
Oscar 11 27 Jun 21:08:05 21:12:17 52° 75° (ENE) 21:16:31 145.826/435.025
FUNcube-1 27 Jun 21:14:37 21:18:40 52° 74° (ENE) 21:22:48 145.935
AO-85 27 Jun 21:14:57 21:20:12 50° 114° (ESE) 21:25:21 145.980
UWE-3 27 Jun 21:15:25 21:19:34 86° 258° (WSW) 21:23:49 435.000/436.395/437.385
DELFI C3 27 Jun 21:23:49 21:27:24 32° 73° (ENE) 21:31:01 145.870
Cosmos 2499 27 Jun 21:25:22 21:29:34 14° 295° (WNW) 21:33:54 435.465 / 435.565
M-CUBED/EXP-1 PRIME 27 Jun 21:34:36 21:37:14 22° 258° (WSW) 21:39:50 437.505
COMPASS 1 27 Jun 21:38:42 21:41:39 19° 265° (W) 21:44:37 437.405
PRISM 27 Jun 21:56:17 22:00:01 36° 288° (WNW) 22:03:45 437.425
CUBEBUG 2 27 Jun 22:04:45 22:07:02 14° 267° (W) 22:09:21 437.445
HUMSAT D 27 Jun 22:17:05 22:21:11 66° 76° (ENE) 22:25:21 437.325/437.525
TIGRISAT 27 Jun 22:24:55 22:28:37 23° 96° (E) 22:32:19 435.000
UNISAT 6 27 Jun 22:29:30 22:33:30 28° 97° (E) 22:37:31 437.425
SRMSAT 27 Jun 22:31:14 22:33:40 13° 195° (SSW) 22:36:07 437.500
ZACube-1 27 Jun 22:34:32 22:37:00 15° 267° (W) 22:39:30 437.345
RS-15 27 Jun 22:42:36 22:54:18 52° 251° (WSW) 23:05:50 29.354- 29.394
Oscar 11 27 Jun 22:47:53 22:48:40 10° 268° (W) 22:49:27 145.826/435.025
CUBEBUG 1 27 Jun 22:52:52 22:55:47 18° 69° (ENE) 22:58:42 437.445
AO-85 27 Jun 22:56:47 23:00:55 22° 309° (NW) 23:04:58 145.980
VELOX 1 27 Jun 22:58:32 23:01:40 19° 69° (ENE) 23:04:49 145.980
DELFI C3 27 Jun 23:00:00 23:02:18 15° 266° (W) 23:04:37 145.870
ANTELSAT 27 Jun 23:08:48 23:13:29 79° 101° (E) 23:18:11 437.575/2403.000
YUBILEINY 27 Jun 23:09:33 23:16:37 26° 72° (ENE) 23:23:39 435.215
QB50P2 27 Jun 23:12:36 23:14:09 12° 93° (E) 23:15:44 145.880/145.840
POLYITAN 1 27 Jun 23:15:05 23:16:48 12° 93° (E) 23:18:31 437.675
DUCHIFAT 1 27 Jun 23:16:33 23:17:20 10° 92° (E) 23:18:07 145.980
ESTCUBE 1 27 Jun 23:30:18 23:34:50 77° 75° (ENE) 23:39:22 437.505/2401.250
AISAT 27 Jun 23:37:54 23:42:13 59° 75° (ENE) 23:46:34 437.250
UKube-1 27 Jun 23:42:37 23:46:36 37° 73° (ENE) 23:50:35 .
SPROUT 27 Jun 23:46:08 23:49:41 26° 71° (ENE) 23:53:14 437.525
50 SAT 27 Jun 23:50:22 23:54:04 87° 254° (WSW) 23:57:48 437.505
DX 1 28 Jun 00:00:40 00:05:00 82° 77° (ENE) 00:09:22 434.975-435.025
TIGRISAT 28 Jun 00:01:14 00:05:13 29° 289° (WNW) 00:09:14 435.000
UNISAT 6 28 Jun 00:06:19 00:10:02 24° 290° (WNW) 00:13:48 437.425
BUGSAT 1 28 Jun 00:13:24 00:16:41 23° 97° (E) 00:19:58 437.445
Cosmos 2491 28 Jun 00:13:27 00:21:25 41° 88° (E) 00:29:21 435.465 / 435.565
SO-50 28 Jun 00:20:57 00:24:08 18° 49° (NE) 00:27:13 436.795
CUBEBUG 1 28 Jun 00:27:52 00:31:47 33° 262° (W) 00:35:43 437.445
NANOSAT C BR1 28 Jun 00:28:04 00:32:20 86° 283° (WNW) 00:36:35 145.865
QB50P1 28 Jun 00:30:38 00:34:54 76° 282° (WNW) 00:39:08 145.935-145.965
POPSAT HIP 1 28 Jun 00:33:47 00:38:02 71° 284° (WNW) 00:42:16 437.405
VELOX 1 28 Jun 00:33:59 00:37:53 31° 262° (W) 00:41:48 145.980
Cosmos 2504 28 Jun 00:45:52 00:53:45 35° 74° (ENE) 01:01:17 435.465 / 435.565
QB50P2 28 Jun 00:46:04 00:50:08 45° 286° (WNW) 00:54:13 145.880/145.840
POLYITAN 1 28 Jun 00:48:41 00:52:46 44° 286° (WNW) 00:56:50 437.675
DUCHIFAT 1 28 Jun 00:49:09 00:53:15 50° 286° (WNW) 00:57:21 145.980
Oscar 19 28 Jun 01:03:29 01:05:39 13° 92° (E) 01:07:48 437.125/150
YUBILEINY 28 Jun 01:05:14 01:13:50 59° 269° (W) 01:22:25 435.215
TISAT 1 28 Jun 01:08:30 01:12:35 61° 76° (ENE) 01:16:42 437.305
SWISSCUBE 28 Jun 01:16:37 01:19:23 15° 66° (ENE) 01:22:08 437.505
UKube-1 28 Jun 01:20:20 01:22:45 15° 266° (W) 01:25:09 .
SPROUT 28 Jun 01:22:25 01:25:34 20° 265° (W) 01:28:43 437.525
BEESAT 28 Jun 01:40:43 01:44:35 25° 69° (ENE) 01:48:27 436.000
ITUPSAT 1 28 Jun 01:41:17 01:45:09 25° 69° (ENE) 01:49:02 437.325
JAS-2 28 Jun 01:42:35 01:48:10 82° 283° (WNW) 01:53:21 435.910
BUGSAT 1 28 Jun 01:48:43 01:51:55 22° 289° (WNW) 01:55:08 437.445
